Flag for Bolivia Weather past 2 weeks in Cochabamba, Bolivia

Now
66 °F

Passing clouds.


Feels Like: 66 °F
Forecast: 55 / 74 °F
Wind: 5 mph from South

Location: Cochabamba Airport

Current Time: Mar 28, 2015 at 9:50:55 PM

Latest Report: Mar 28, 2015 at 9:00 PM


Visibility: N/A

Pressure: 30.27 "Hg

Humidity: 56%

Dew point: 50 °F

Location of CochabambaLocation

Historic Weather in Cochabamba — Graph

°F

Cochabamba temperature yesterday

Maximum temperature yesterday: 72 °F (at 4:00 PM)
Minimum temperature yesterday: 54 °F (at 10:00 PM)
Average temperature yesterday: 59 °F

Past Weeks' High & Low Weather Summary

 TemperatureHumidityPressure
High82 °F (Mar 14, 2:00 PM)100% (Mar 27, 6:00 AM)30.45 "Hg (Mar 27, 6:00 AM)
Low50 °F (Mar 25, 5:00 AM)21% (Mar 19, 5:00 PM)30.04 "Hg (Mar 17, 2:00 AM)
Average65 °F56%30.30 "Hg
* Reported Mar 13 9:00 PM — Mar 28 9:00 PM, Cochabamba, Weather by CustomWeather, © 2015

Note: Actual official high and low records may vary slightly from our data, if they occured in-between our weather recording intervals... More about our weather records

Advertising

Cochabamba weather history for previous 24 hours

 ConditionsComfort  
Time TempWeatherWind HumidityBarometerVisibility
9:00 PM
Sat, Mar 28
66 °FPassing clouds.5 mph56%30.27 "HgN/A
8:00 PM68 °FPassing clouds.9 mph46%30.24 "HgN/A
7:00 PM72 °FPassing clouds.9 mph33%30.21 "HgN/A
6:00 PM77 °FScattered clouds.6 mph24%30.18 "HgN/A
5:00 PM79 °FScattered clouds.5 mph23%30.18 "HgN/A
4:00 PM77 °FPassing clouds.3 mph30%30.21 "HgN/A
3:00 PM77 °FScattered clouds.3 mph32%30.24 "HgN/A
2:00 PM75 °FPartly sunny.3 mph36%30.27 "HgN/A
1:00 PM72 °FPartly sunny.3 mph47%30.33 "HgN/A
12:00 PM68 °FPartly sunny.5 mph60%30.39 "Hg6 mi
11:00 AM63 °FBroken clouds.3 mph68%30.42 "Hg5 mi
10:00 AM61 °FBroken clouds.3 mph72%30.42 "Hg4 mi
9:00 AM57 °FScattered clouds.3 mph88%30.42 "Hg2 mi
8:00 AM54 °FFog.No wind94%30.42 "Hg2 mi
7:00 AM50 °FFog.No wind100%30.39 "Hg0 mi
6:00 AM50 °FPassing clouds.No wind100%30.36 "Hg4 mi
5:00 AM52 °FPassing clouds.No wind100%30.36 "Hg4 mi
4:00 AM52 °FThunderstorms. Overcast.No wind100%30.33 "HgN/A
3:00 AM54 °FPassing clouds.No wind94%30.33 "Hg5 mi
2:00 AM54 °FPassing clouds.No wind94%30.33 "HgN/A
1:00 AM54 °FPartly cloudy.8 mph94%30.36 "HgN/A
12:00 AM55 °FPartly cloudy.5 mph94%30.36 "HgN/A
11:00 PM
Fri, Mar 27
55 °FPassing clouds.3 mph94%30.39 "HgN/A
10:00 PM54 °FPassing clouds.No wind94%30.39 "HgN/A
9:00 PM55 °FPartly cloudy.No wind94%30.36 "HgN/A
Weather by CustomWeather, © 2015

See weather overviewHow to use our weather pages